Location: Bakov nad Jizerou
(50.4784°N, 14.9394°E)
Time: 06:56:23
(UTC+00:00)

NOSS 8 (A) - Pass Details

Date: 16 June 2021
Orbit: 369 x 1767 km, 63.3° (Epoch: 16 July)

Event Time Altitude Azimuth Distance (km) Brightness Sun altitude
Rises 20:26:30 0° 215° (SW) 2,549 8.0 -8.6°
Reaches altitude 10° 20:28:48 10° 213° (SSW) 1,544 6.9 -8.8°
Maximum altitude 20:32:03 64° 131° (SE) 437 4.1 -9.1°
Drops below altitude 10° 20:34:56 10° 49° (NE) 1,379 7.0 -9.4°
Sets 20:36:53 0° 46° (NE) 2,239 8.1 -9.6°
